INTELSAT 33E DEB, 61994

Orbit data source: Space-Track

INTELSAT 33E DEB, 61994 is space debris in GEO originally from a launch on Wed, 24 Aug 2016 UTC launched from the French Guiana (FRGUI). Debris objects in space refer to the collection of defunct objects orbiting the Earth. Examples of debris include non-operational satellites, rocket bodies, and fragments generated from explosions, collisions, or faulty payload assembly.

Not visible in the next 10 days
Identifier
61994, 2016-053L
Orbit
GEO
Country
Flag of USUS / ITSO
Related business
Manufacturer
Boeing/ES
Mission
Spacecraft
Bus & Motor
Unknown
Mass
Unknown
Launch date (UTC)
2016-08-24 (10 years ago)
Launch vehicle
Unknown
Launch site
French Guiana (FRGUI)
Object type
Payload
Rocket body
Debris
Shape & HBR
Unknown shape, 1.1 m
Radar Cross Section
RCS unknown

Expand to show TLE details & history
Last TLE update: 9 hours ago

TLE from 9 hours ago
0 INTELSAT 33E DEB
1 61994U 16053L   26107.22541460 -.00000055  00000-0  00000-0 0  9995
2 61994   1.4300  86.2727 0025177 211.6073 148.8657  1.00487861  5484
Epoch: 2026-04-17T05:24Z
TLE epoch observation values (Epoch: 2026-04-17T05:24:35.821Z)
Latitude
-0°
Longitude
160.37313°
Altitude
35,815.89 km
Speed
3.07 km/s
True Right ascension
05h 47m 32s
True Declination
0° 00' 00"
Sunlit
Object was in daylight at epoch
Visualization orbit readout
Latitude
Unknown
Longitude
Unknown
Altitude
Unknown
Speed
Unknown
Apparent Right ascension
Unknown
Apparent Declination
Unknown
Sunlit
N/A
Visualization observer readout
Local Sidereal Time
21:26:38
Azimuth
Unknown
Elevation
Unknown
Doppler factor
Unknown
Orbital elements
Apogee altitude
35,833.209 km
Perigee altitude
35,621.192 km
Semi-major axis
42,105.337 km
Eccentricity
0.00252
Inclination
1.43°
RAAN
86.2727°
Arg. of periapsis
211.6073°
True anomaly
149.01447°
Mean anomaly
148.8657°
Eccentric anomaly
148.94013°
Mean motion
0.25121 °/min
Orbital period
1,433.06 mins
BSTAR
0
Loading maneuver chart data...
Computing Atmospheric mass density...
Loading historical data...
Loading historical data...
Loading historical data...
Loading historical data...
Loading historical data...
Loading historical data...
Loading historical data...

Documentation

Showing up to 5 results
|